Flag for U.S.A. Weather past 2 weeks in Louisville, Kentucky, U.S.A.

Now
73 °F

Passing clouds.


Feels Like: 74 °F
Forecast: 71 / 84 °F
Wind: 7 mph from Southeast

Location: Standiford Field

Current Time: Aug 30, 2014 at 4:38:18 AM

Latest Report: Aug 30, 2014 at 3:56 AM


Visibility: 10 mi

Pressure: 30.00 "Hg

Humidity: 76%

Dew point: 65 °F

Location of LouisvilleLocation

Historic Weather in Louisville — Graph

°F

Louisville temperature yesterday

Maximum temperature yesterday: 92 °F (at 4:56 PM)
Minimum temperature yesterday: 73 °F (at 6:56 AM)
Average temperature yesterday: 81 °F

Past Weeks' High & Low Weather Summary

 TemperatureHumidityPressure
High93 °F (Aug 25, 2:56 PM)97% (Aug 17, 11:56 PM)30.12 "Hg (Aug 17, 11:56 PM)
Low62 °F (Aug 15, 6:56 AM)37% (Aug 15, 9:56 PM)29.79 "Hg (Aug 19, 4:56 PM)
Average79 °F74%29.97 "Hg
* Reported Aug 15 3:56 AM — Aug 30 2:56 AM, Louisville, Weather by CustomWeather, © 2014

Note: Actual official high and low records may vary slightly from our data, if they occured in-between our weather recording intervals... More about our weather records

Advertising

Louisville weather history for previous 24 hours

 ConditionsComfort  
Time TempWeatherWind HumidityBarometerVisibility
2:56 AM
Aug 30
73 °FClear.6 mph76%30.01 "Hg10 mi
1:56 AM74 °FClear.7 mph74%30.02 "Hg10 mi
12:56 AM76 °FPassing clouds.3 mph69%30.02 "Hg10 mi
11:56 PM
Aug 29
77 °FPassing clouds.7 mph66%30.00 "Hg10 mi
10:56 PM78 °FPassing clouds.6 mph64%29.99 "Hg10 mi
9:56 PM81 °FPassing clouds.6 mph58%29.98 "Hg10 mi
8:56 PM84 °FPartly sunny.8 mph46%29.97 "Hg10 mi
7:56 PM86 °FScattered clouds.8 mph43%29.97 "Hg10 mi
6:56 PM88 °FSunny.10 mph40%29.96 "Hg10 mi
5:56 PM90 °FScattered clouds.12 mph38%29.95 "Hg10 mi
4:56 PM92 °FScattered clouds.13 mph41%29.95 "Hg10 mi
2:56 PM91 °FScattered clouds.12 mph49%29.98 "Hg10 mi
1:56 PM91 °FPassing clouds.10 mph50%30.00 "Hg10 mi
12:56 PM87 °FScattered clouds.N/A61%30.01 "Hg9 mi
11:56 AM84 °FScattered clouds.6 mph67%30.03 "Hg9 mi
10:56 AM81 °FScattered clouds.8 mph69%30.03 "Hg9 mi
9:56 AM79 °FPartly sunny.7 mph69%30.03 "Hg9 mi
8:56 AM76 °FBroken clouds.7 mph74%30.03 "Hg9 mi
7:56 AM74 °FPartly cloudy.5 mph79%30.03 "Hg8 mi
6:56 AM73 °FClear.6 mph84%30.01 "Hg9 mi
5:56 AM74 °FPassing clouds.3 mph82%30.01 "Hg9 mi
4:56 AM75 °FClear.5 mph79%30.00 "Hg10 mi
Weather by CustomWeather, © 2014

See weather overviewHow to use our weather pages